O3B FM18 (44115 NORAD) Tracking and Keplerian Element Data

This shows tracking and keplerian element data for the satellite.

Feedback or suggestion? Click here.




ElementValue
Catalog44115
NameO3B FM18
Epoch Orbit20
Epoch Day98.86285525
Epoch Year2019
RAAN334.7779
Inclination0.0407
Eccentricity7.18E-05
Argument of Perigee76.6544
Mean Anonmoly205.7934
Mean Motion5.12090254
Decay Rate-1.6E-07
L11 44115U 19020D 19098.86285525 -.00000016 00000-0 00000+0 0 9992
L22 44115 0.0407 334.7779 0000718 76.6544 205.7934 5.12090254 206

Live tracking and technical data element details for O3B FM18 (NORAD 44115). O3B FM18 can be tracked NOW for your location showing map with azimuth and elevation plus other details from your city location.

Track the satellite on the map from your city or location and see movement details for azimuth, elevation, latitude, longitude, range, height, and movement on the map or in text.







IsCatalogInMostPopularTable: catalog: 44115, numindb: 14
Update: records affected: 1



GetName: 44115 O3B FM18

Hit Count: updated at: Tue, 23 Apr 2019 01:53:29 GMT